M I D A S
Marine Information and Data Acquisition System
Tripno 2246 of the Zeeleeuw from 2011-11-23 07:52:18 to 2011-11-23 15:39:22
Back to CruiseResearch ActivitiesStationsMapUnderway DataData graphs

EquipmentUnitsComments
TimeDGPSUTC
LatitudeDGPSDM.mWGS84
LongitudeDGPSDM.mWGS84
SpeedMeteo Stationm/sRelative wind speed
DirectionMeteo StationdegRelative wind direction
TemperatureMeteo Stationdeg CelciusAir temperature
PressureMeteo StationPaAtmospheric pressure
HumidityMeteo Station%Relative humidity
Missing or incorrect values are displayed as -999
Metereological data collected by the RV Zeeleeuw from 2011-11-23 07:42:10 to 2011-11-23 15:48:23
                                                                                    Next 1000 lines
Time Latitude Longitude Speed Direction Temperature Pressure Humidity
2011-11-23 07:42:20 51°13.636 2°56.02 -999 252 10.2 102540 51
2011-11-23 07:42:25 51°13.636 2°56.02 -999 252 10.2 102540 51
2011-11-23 07:42:30 51°13.636 2°56.02 -999 252 10.2 102540 52
2011-11-23 07:42:36 51°13.636 2°56.02 -999 242 10.2 102540 52
2011-11-23 07:42:40 51°13.636 2°56.02 -999 23 10.2 102540 52
2011-11-23 07:42:46 51°13.636 2°56.02 -999 242 10.2 102540 52
2011-11-23 07:42:51 51°13.636 2°56.02 -999 23 10.2 102540 51
2011-11-23 07:42:56 51°13.636 2°56.02 -999 242 10.2 102540 51
2011-11-23 07:43:01 51°13.636 2°56.02 -999 23 10.2 102540 51
2011-11-23 07:43:06 51°13.636 2°56.02 -999 245 10.2 102540 51
2011-11-23 07:43:11 51°13.636 2°56.02 -999 23 10.2 102540 52
2011-11-23 07:43:16 51°13.636 2°56.02 -999 35 10.2 102540 52
2011-11-23 07:43:21 51°13.636 2°56.02 -999 23 10.2 102540 51
2011-11-23 07:43:26 51°13.636 2°56.02 -999 238 10.2 102540 51
2011-11-23 07:43:31 51°13.636 2°56.02 -999 23 10.2 102540 51
2011-11-23 07:43:36 51°13.636 2°56.02 -999 237 10.2 102540 51
2011-11-23 07:43:41 51°13.636 2°56.02 -999 23 10.2 102540 52
2011-11-23 07:43:46 51°13.636 2°56.02 -999 237 10.2 102540 52
2011-11-23 07:43:51 51°13.636 2°56.02 -999 23 10.2 102540 52
2011-11-23 07:43:56 51°13.636 2°56.02 -999 237 10.2 102540 52
2011-11-23 07:44:01 51°13.636 2°56.02 -999 23 10.2 102540 51
2011-11-23 07:44:06 51°13.636 2°56.02 -999 238 10.2 102540 51
2011-11-23 07:44:11 51°13.636 2°56.02 -999 23 10.2 102540 50
2011-11-23 07:44:16 51°13.636 2°56.02 -999 237 10.2 102540 50
2011-11-23 07:44:21 51°13.636 2°56.02 -999 23 10.2 102540 52
2011-11-23 07:44:26 51°13.637 2°56.02 -999 237 10.2 102540 52
2011-11-23 07:44:31 51°13.637 2°56.02 -999 23 10.2 102540 52
2011-11-23 07:44:36 51°13.636 2°56.02 -999 237 10.2 102540 52
2011-11-23 07:44:41 51°13.636 2°56.02 -999 23 10.2 102540 51
2011-11-23 07:44:46 51°13.636 2°56.02 -999 237 10.2 102540 51
2011-11-23 07:44:51 51°13.636 2°56.019 -999 23 10.2 102540 51
2011-11-23 07:44:56 51°13.636 2°56.019 -999 35 10.2 102540 51
2011-11-23 07:45:01 51°13.636 2°56.019 -999 23 10.2 102540 51
2011-11-23 07:45:06 51°13.636 2°56.019 -999 35 10.2 102540 51
2011-11-23 07:45:11 51°13.636 2°56.019 -999 23 10.2 102540 51
2011-11-23 07:45:16 51°13.636 2°56.019 -999 35 10.2 102540 51
2011-11-23 07:45:21 51°13.636 2°56.019 -999 23 10.2 102550 51
2011-11-23 07:45:26 51°13.636 2°56.019 -999 35 10.2 102550 51
2011-11-23 07:45:31 51°13.636 2°56.019 -999 23 10.2 102540 51
2011-11-23 07:45:36 51°13.636 2°56.019 -999 35 10.2 102540 51
2011-11-23 07:45:41 51°13.636 2°56.019 -999 23 10.2 102540 51
2011-11-23 07:45:46 51°13.636 2°56.019 -999 35 10.2 102540 51
2011-11-23 07:45:51 51°13.636 2°56.019 -999 23 10.2 102540 51
2011-11-23 07:45:56 51°13.636 2°56.019 -999 35 10.2 102540 51
2011-11-23 07:46:01 51°13.636 2°56.019 -999 23 10.2 102540 51
2011-11-23 07:46:06 51°13.636 2°56.019 -999 35 10.2 102540 51
2011-11-23 07:46:11 51°13.636 2°56.019 -999 23 10.2 102540 51
2011-11-23 07:46:16 51°13.636 2°56.019 -999 35 10.2 102540 51
2011-11-23 07:46:21 51°13.636 2°56.019 -999 23 10.2 102540 51
2011-11-23 07:46:26 51°13.636 2°56.019 -999 35 10.2 102540 51
2011-11-23 07:46:31 51°13.636 2°56.019 -999 23 10.2 102540 51
2011-11-23 07:46:36 51°13.636 2°56.019 -999 35 10.2 102540 51
2011-11-23 07:46:41 51°13.636 2°56.019 -999 23 10.2 102540 51
2011-11-23 07:46:46 51°13.636 2°56.019 -999 316 10.2 102540 51
2011-11-23 07:46:51 51°13.636 2°56.019 -999 316 10.2 102540 50
2011-11-23 07:46:56 51°13.636 2°56.019 -999 318 10.2 102540 50
2011-11-23 07:47:01 51°13.636 2°56.019 -999 318 10.2 102540 51
2011-11-23 07:47:06 51°13.636 2°56.019 -999 318 10.2 102540 51
2011-11-23 07:47:11 51°13.636 2°56.019 -999 318 10.2 102540 51
2011-11-23 07:47:16 51°13.636 2°56.019 -999 318 10.2 102540 51
2011-11-23 07:47:21 51°13.636 2°56.018 -999 318 10.1 102540 51
2011-11-23 07:47:26 51°13.635 2°56.018 -999 318 10.1 102540 51
2011-11-23 07:47:31 51°13.635 2°56.018 -999 318 10.1 102540 51
2011-11-23 07:47:36 51°13.635 2°56.018 -999 318 10.1 102540 51
2011-11-23 07:47:41 51°13.635 2°56.018 -999 318 10.1 102540 51
2011-11-23 07:47:46 51°13.635 2°56.018 -999 321 10.1 102540 51
2011-11-23 07:47:51 51°13.636 2°56.018 -999 321 10.1 102540 51
2011-11-23 07:47:55 51°13.636 2°56.018 -999 321 10.1 102540 51
2011-11-23 07:48:01 51°13.636 2°56.018 -999 321 10.1 102540 51
2011-11-23 07:48:06 51°13.636 2°56.019 -999 322 10.1 102540 51
2011-11-23 07:48:11 51°13.636 2°56.019 -999 322 10.1 102540 51
2011-11-23 07:48:15 51°13.636 2°56.019 -999 323 10.1 102540 51
2011-11-23 07:48:21 51°13.636 2°56.019 -999 323 10.1 102540 51
2011-11-23 07:48:26 51°13.636 2°56.019 -999 323 10.1 102540 51
2011-11-23 07:48:30 51°13.636 2°56.019 -999 323 10.1 102540 51
2011-11-23 07:48:35 51°13.636 2°56.019 -999 323 10.1 102540 51
2011-11-23 07:48:40 51°13.636 2°56.019 -999 323 10.1 102540 51
2011-11-23 07:48:46 51°13.636 2°56.019 -999 323 10.1 102540 51
2011-11-23 07:48:51 51°13.636 2°56.019 -999 323 10.1 102540 51
2011-11-23 07:48:56 51°13.636 2°56.019 -999 325 10.1 102540 51
2011-11-23 07:49:01 51°13.636 2°56.019 -999 325 10.1 102540 51
2011-11-23 07:49:06 51°13.636 2°56.019 -999 337 10.1 102540 51
2011-11-23 07:49:11 51°13.636 2°56.019 -999 337 10.1 102540 51
2011-11-23 07:49:16 51°13.636 2°56.019 -999 338 10.1 102540 51
2011-11-23 07:49:21 51°13.636 2°56.019 -999 338 10.1 102540 51
2011-11-23 07:49:26 51°13.636 2°56.019 -999 338 10.1 102540 51
2011-11-23 07:49:31 51°13.636 2°56.019 -999 338 10.1 102550 50
2011-11-23 07:49:36 51°13.636 2°56.019 -999 338 10.1 102550 50
2011-11-23 07:49:41 51°13.636 2°56.019 -999 338 10.1 102550 51
2011-11-23 07:49:46 51°13.636 2°56.019 -999 338 10.1 102550 51
2011-11-23 07:49:51 51°13.637 2°56.019 -999 338 10.1 102550 51
2011-11-23 07:49:56 51°13.637 2°56.019 -999 338 10.1 102550 51
2011-11-23 07:50:01 51°13.637 2°56.019 -999 338 10 102550 51
2011-11-23 07:50:06 51°13.636 2°56.019 -999 338 10 102550 51
2011-11-23 07:50:11 51°13.636 2°56.019 -999 338 10 102550 51
2011-11-23 07:50:16 51°13.636 2°56.019 -999 338 10 102550 51
2011-11-23 07:50:21 51°13.636 2°56.018 -999 338 10 102550 51
2011-11-23 07:50:26 51°13.635 2°56.018 -999 338 10 102550 51
2011-11-23 07:50:31 51°13.634 2°56.018 -999 338 10 102550 51
2011-11-23 07:50:36 51°13.635 2°56.018 -999 338 10 102550 51
2011-11-23 07:50:41 51°13.635 2°56.018 -999 338 10 102540 51
2011-11-23 07:50:46 51°13.635 2°56.018 -999 338 10 102540 51
2011-11-23 07:50:51 51°13.635 2°56.018 -999 338 10 102540 51
2011-11-23 07:50:56 51°13.635 2°56.018 -999 338 10 102540 51
2011-11-23 07:51:01 51°13.635 2°56.018 -999 338 10 102550 51
2011-11-23 07:51:06 51°13.635 2°56.018 -999 338 10 102550 51
2011-11-23 07:51:12 51°13.635 2°56.019 -999 338 10 102550 51
2011-11-23 07:51:16 51°13.635 2°56.019 -999 339 10 102550 51
2011-11-23 07:51:21 51°13.635 2°56.019 -999 339 10 102540 51
2011-11-23 07:51:26 51°13.635 2°56.019 -999 339 10 102540 51
2011-11-23 07:51:31 51°13.635 2°56.019 -999 339 10 102540 52
2011-11-23 07:51:37 51°13.635 2°56.019 -999 339 10 102540 52
2011-11-23 07:51:41 51°13.635 2°56.019 -999 339 10 102550 51
2011-11-23 07:51:46 51°13.635 2°56.019 -999 339 10 102550 51
2011-11-23 07:51:51 51°13.635 2°56.019 -999 339 10 102540 51
2011-11-23 07:51:56 51°13.635 2°56.019 -999 340 10 102540 51
2011-11-23 07:52:01 51°13.635 2°56.019 -999 340 10 102550 51
2011-11-23 07:52:06 51°13.635 2°56.019 -999 342 10 102550 51
2011-11-23 07:52:11 51°13.634 2°56.019 -999 342 10 102550 50
2011-11-23 07:52:16 51°13.634 2°56.019 -999 344 10 102550 50
2011-11-23 07:52:21 51°13.634 2°56.018 -999 344 10 102550 51
2011-11-23 07:52:26 51°13.634 2°56.018 -999 346 10 102550 51
2011-11-23 07:52:31 51°13.634 2°56.018 -999 346 10 102540 52
2011-11-23 07:52:36 51°13.634 2°56.017 -999 347 10 102540 52
2011-11-23 07:52:41 51°13.635 2°56.015 -999 347 9.9 102540 51
2011-11-23 07:52:46 51°13.635 2°56.013 -999 347 9.9 102540 51
2011-11-23 07:52:51 51°13.636 2°56.01 -999 350 9.9 102540 52
2011-11-23 07:52:56 51°13.637 2°56.006 -999 358 9.9 102540 52
2011-11-23 07:53:01 51°13.638 2°56.002 -999 358 9.9 102540 52
2011-11-23 07:53:07 51°13.639 2°55.996 -999 358 9.9 102540 52
2011-11-23 07:53:13 51°13.64 2°55.989 -999 13 9.9 102540 52
2011-11-23 07:53:18 51°13.641 2°55.984 -999 13 9.9 102540 52
2011-11-23 07:53:24 51°13.643 2°55.977 -999 13 9.9 102540 52
2011-11-23 07:53:29 51°13.644 2°55.97 0.1 13 9.9 102540 52
2011-11-23 07:53:34 51°13.646 2°55.964 0.1 13 9.9 102540 52
2011-11-23 07:53:39 51°13.647 2°55.957 -999 14 9.9 102540 52
2011-11-23 07:53:44 51°13.649 2°55.95 -999 14 9.9 102540 51
2011-11-23 07:53:49 51°13.651 2°55.942 -999 20 9.9 102540 51
2011-11-23 07:53:54 51°13.653 2°55.935 -999 20 9.9 102540 52
2011-11-23 07:53:59 51°13.655 2°55.927 -999 20 9.9 102540 52
2011-11-23 07:54:04 51°13.657 2°55.919 -999 20 9.9 102540 52
2011-11-23 07:54:09 51°13.66 2°55.911 -999 20 9.9 102540 52
2011-11-23 07:54:14 51°13.662 2°55.902 -999 20 9.9 102540 52
2011-11-23 07:54:20 51°13.666 2°55.893 -999 20 9.9 102540 52
2011-11-23 07:54:24 51°13.668 2°55.886 -999 20 9.9 102540 52
2011-11-23 07:54:29 51°13.671 2°55.878 -999 20 9.9 102540 52
2011-11-23 07:54:34 51°13.674 2°55.869 -999 20 9.9 102540 51
2011-11-23 07:54:39 51°13.677 2°55.86 -999 20 9.9 102540 51
2011-11-23 07:54:45 51°13.681 2°55.85 -999 20 9.9 102540 51
2011-11-23 07:54:49 51°13.684 2°55.843 -999 21 9.9 102540 51
2011-11-23 07:54:54 51°13.688 2°55.835 -999 21 9.9 102540 51
2011-11-23 07:54:59 51°13.691 2°55.826 -999 21 9.9 102540 51
2011-11-23 07:55:04 51°13.695 2°55.817 -999 21 9.9 102540 51
2011-11-23 07:55:09 51°13.699 2°55.809 0.1 23 9.9 102540 51
2011-11-23 07:55:14 51°13.703 2°55.801 0.1 42 9.9 102540 52
2011-11-23 07:55:18 51°13.706 2°55.794 -999 42 9.9 102540 52
2011-11-23 07:55:24 51°13.711 2°55.784 -999 42 9.9 102540 52
2011-11-23 07:55:29 51°13.715 2°55.775 -999 42 9.9 102540 52
2011-11-23 07:55:35 51°13.72 2°55.765 -999 42 9.9 102540 52
2011-11-23 07:55:39 51°13.724 2°55.758 0.5 43 9.9 102540 52
2011-11-23 07:55:45 51°13.729 2°55.748 0.6 42 9.9 102540 52
2011-11-23 07:55:50 51°13.733 2°55.74 0.1 43 9.9 102540 52
2011-11-23 07:55:55 51°13.738 2°55.733 0.7 43 9.9 102540 52
2011-11-23 07:55:59 51°13.742 2°55.727 0.2 43 9.9 102540 52
2011-11-23 07:56:05 51°13.748 2°55.719 0.4 44 9.9 102540 52
2011-11-23 07:56:10 51°13.753 2°55.712 0.4 43 9.9 102540 52
2011-11-23 07:56:15 51°13.759 2°55.705 0.4 44 9.9 102550 52
2011-11-23 07:56:19 51°13.763 2°55.7 0.6 44 9.9 102550 52
2011-11-23 07:56:25 51°13.77 2°55.693 0.6 44 9.9 102540 51
2011-11-23 07:56:30 51°13.776 2°55.688 0.5 44 9.9 102540 51
2011-11-23 07:56:34 51°13.781 2°55.683 0.5 44 9.9 102540 52
2011-11-23 07:56:39 51°13.787 2°55.678 0.4 44 9.9 102540 52
2011-11-23 07:56:45 51°13.795 2°55.672 0.5 44 9.8 102540 52
2011-11-23 07:56:50 51°13.801 2°55.667 0.6 38 9.8 102540 52
2011-11-23 07:56:55 51°13.808 2°55.663 0.4 20 9.9 102550 51
2011-11-23 07:56:59 51°13.813 2°55.659 0.4 32 9.9 102550 51
2011-11-23 07:57:05 51°13.821 2°55.653 0.2 22 9.9 102550 52
2011-11-23 07:57:10 51°13.828 2°55.648 0.1 30 9.9 102550 52
2011-11-23 07:57:15 51°13.834 2°55.644 0.1 25 9.9 102550 51
2011-11-23 07:57:19 51°13.839 2°55.64 0.4 35 9.9 102550 51
2011-11-23 07:57:25 51°13.847 2°55.635 0.2 24 9.8 102550 52
2011-11-23 07:57:30 51°13.853 2°55.631 0.1 30 9.8 102550 52
2011-11-23 07:57:35 51°13.859 2°55.627 0.1 20 9.8 102550 50
2011-11-23 07:57:39 51°13.864 2°55.625 0.1 38 9.8 102550 50
2011-11-23 07:57:45 51°13.87 2°55.621 0.1 20 9.8 102550 52
2011-11-23 07:57:50 51°13.876 2°55.619 0.1 35 9.8 102550 52
2011-11-23 07:57:54 51°13.88 2°55.617 0.1 24 9.8 102550 52
2011-11-23 07:57:59 51°13.885 2°55.615 -999 35 9.8 102550 52
2011-11-23 07:58:04 51°13.89 2°55.613 -999 23 9.8 102550 52
2011-11-23 07:58:09 51°13.894 2°55.612 -999 35 9.8 102550 52
2011-11-23 07:58:15 51°13.899 2°55.611 -999 23 9.8 102550 52
2011-11-23 07:58:19 51°13.903 2°55.61 -999 35 9.8 102550 52
2011-11-23 07:58:24 51°13.907 2°55.61 -999 23 9.8 102550 52
2011-11-23 07:58:28 51°13.911 2°55.61 -999 35 9.8 102550 52
2011-11-23 07:58:33 51°13.914 2°55.61 -999 23 9.8 102550 52
2011-11-23 07:58:39 51°13.919 2°55.611 -999 35 9.8 102550 52
2011-11-23 07:58:44 51°13.923 2°55.612 -999 23 9.8 102550 52
2011-11-23 07:58:49 51°13.927 2°55.613 -999 35 9.8 102550 52
2011-11-23 07:58:54 51°13.931 2°55.615 -999 23 9.8 102550 52
2011-11-23 07:59:00 51°13.936 2°55.617 0.1 34 9.8 102550 52
2011-11-23 07:59:04 51°13.939 2°55.619 0.1 23 9.8 102550 52
2011-11-23 07:59:10 51°13.944 2°55.621 -999 35 9.8 102550 52
2011-11-23 07:59:15 51°13.947 2°55.623 -999 23 9.8 102550 52
2011-11-23 07:59:20 51°13.951 2°55.626 -999 35 9.8 102550 52
2011-11-23 07:59:24 51°13.953 2°55.628 -999 23 9.8 102550 52
2011-11-23 07:59:29 51°13.956 2°55.63 -999 35 9.8 102550 52
2011-11-23 07:59:34 51°13.959 2°55.632 -999 23 9.8 102550 52
2011-11-23 07:59:39 51°13.962 2°55.634 -999 35 9.8 102550 52
2011-11-23 07:59:44 51°13.964 2°55.636 -999 23 9.8 102550 52
2011-11-23 07:59:48 51°13.966 2°55.637 -999 35 9.8 102550 52
2011-11-23 07:59:53 51°13.967 2°55.638 -999 23 9.8 102550 52
2011-11-23 07:59:58 51°13.968 2°55.639 0.2 249 9.8 102550 52
2011-11-23 08:00:03 51°13.969 2°55.639 0.4 21 9.8 102550 52
2011-11-23 08:00:09 51°13.969 2°55.638 0.1 249 9.8 102550 52
2011-11-23 08:00:13 51°13.97 2°55.637 0.3 18 9.8 102550 51
2011-11-23 08:00:18 51°13.97 2°55.635 0.1 248 9.8 102550 51
2011-11-23 08:00:24 51°13.969 2°55.633 0.1 248 9.8 102550 52
2011-11-23 08:00:29 51°13.969 2°55.63 0.1 245 9.8 102550 52
2011-11-23 08:00:33 51°13.969 2°55.627 0.1 20 9.8 102550 52
2011-11-23 08:00:38 51°13.969 2°55.624 0.1 245 9.8 102550 52
2011-11-23 08:00:43 51°13.97 2°55.62 0.1 25 9.8 102550 52
2011-11-23 08:00:48 51°13.97 2°55.615 0.4 245 9.8 102550 52
2011-11-23 08:00:53 51°13.971 2°55.61 0.6 19 9.8 102550 52
2011-11-23 08:00:57 51°13.972 2°55.606 0.4 245 9.8 102550 52
2011-11-23 08:01:02 51°13.973 2°55.601 0.2 20 9.8 102550 52
2011-11-23 08:01:07 51°13.974 2°55.596 0.1 245 9.8 102550 52
2011-11-23 08:01:12 51°13.976 2°55.59 -999 23 9.8 102550 52
2011-11-23 08:01:17 51°13.979 2°55.585 -999 245 9.8 102550 52
2011-11-23 08:01:21 51°13.981 2°55.581 -999 23 9.8 102550 52
2011-11-23 08:01:26 51°13.984 2°55.575 -999 245 9.8 102550 52
2011-11-23 08:01:31 51°13.988 2°55.57 -999 23 9.8 102550 52
2011-11-23 08:01:37 51°13.993 2°55.563 -999 245 9.8 102550 52
2011-11-23 08:01:41 51°13.996 2°55.559 -999 23 9.9 102550 52
2011-11-23 08:01:46 51°14.001 2°55.553 -999 38 9.9 102550 52
2011-11-23 08:01:51 51°14.007 2°55.547 -999 25 9.9 102550 52
2011-11-23 08:01:56 51°14.013 2°55.54 -999 35 9.9 102550 52
2011-11-23 08:02:01 51°14.02 2°55.533 0.1 24 9.9 102550 52
2011-11-23 08:02:06 51°14.027 2°55.526 0.1 318 9.9 102550 52
2011-11-23 08:02:11 51°14.034 2°55.518 0.1 320 9.9 102550 52
2011-11-23 08:02:16 51°14.043 2°55.509 -999 322 9.9 102550 52
2011-11-23 08:02:21 51°14.051 2°55.5 -999 322 9.9 102550 52
2011-11-23 08:02:26 51°14.06 2°55.492 -999 323 9.9 102550 52
2011-11-23 08:02:31 51°14.069 2°55.482 -999 325 9.9 102550 52
2011-11-23 08:02:36 51°14.079 2°55.473 2.5 323 9.9 102550 52
2011-11-23 08:02:41 51°14.089 2°55.464 2.4 325 9.9 102550 52
2011-11-23 08:02:45 51°14.097 2°55.456 3.6 325 9.9 102550 52
2011-11-23 08:02:51 51°14.109 2°55.444 1.9 324 9.9 102550 51
2011-11-23 08:02:56 51°14.12 2°55.434 0.4 324 9.9 102550 51
2011-11-23 08:03:01 51°14.13 2°55.424 0.2 324 9.9 102550 51
2011-11-23 08:03:06 51°14.141 2°55.414 0.1 327 9.9 102550 51
2011-11-23 08:03:12 51°14.154 2°55.402 -999 329 9.9 102550 53
2011-11-23 08:03:17 51°14.166 2°55.392 -999 328 9.9 102550 53
2011-11-23 08:03:23 51°14.18 2°55.38 -999 326 9.9 102550 52
2011-11-23 08:03:29 51°14.193 2°55.366 -999 326 9.9 102550 52
2011-11-23 08:03:34 51°14.204 2°55.355 -999 327 9.9 102550 52
2011-11-23 08:03:40 51°14.219 2°55.342 -999 327 9.9 102550 52
2011-11-23 08:03:45 51°14.231 2°55.33 -999 329 10 102550 52
2011-11-23 08:03:49 51°14.24 2°55.321 -999 330 10 102550 52
2011-11-23 08:03:54 51°14.252 2°55.311 -999 331 9.9 102560 52
2011-11-23 08:03:59 51°14.265 2°55.3 -999 332 9.9 102560 52
2011-11-23 08:04:05 51°14.279 2°55.287 3 332 10 102550 52
2011-11-23 08:04:09 51°14.289 2°55.278 2.7 332 10 102550 52
2011-11-23 08:04:14 51°14.302 2°55.267 3.1 333 10 102560 52
2011-11-23 08:04:19 51°14.315 2°55.256 3.2 331 10 102560 52
2011-11-23 08:04:24 51°14.328 2°55.244 3.2 335 10 102550 52
2011-11-23 08:04:29 51°14.34 2°55.231 3.1 331 10 102550 52
2011-11-23 08:04:35 51°14.356 2°55.217 3 332 10 102550 53
2011-11-23 08:04:39 51°14.366 2°55.207 3.4 333 10 102550 53
2011-11-23 08:04:45 51°14.382 2°55.192 3.8 333 10 102550 51
2011-11-23 08:04:49 51°14.393 2°55.182 3 330 10 102550 51
2011-11-23 08:04:54 51°14.406 2°55.168 3 330 10 102550 53
2011-11-23 08:04:59 51°14.419 2°55.155 3.2 334 10 102550 53
2011-11-23 08:05:05 51°14.434 2°55.139 3.4 331 10 102550 53
2011-11-23 08:05:09 51°14.445 2°55.128 3.5 333 10 102550 53
2011-11-23 08:05:14 51°14.457 2°55.114 3.3 334 10 102550 52
2011-11-23 08:05:19 51°14.47 2°55.1 4.3 330 10 102550 52
2011-11-23 08:05:24 51°14.483 2°55.086 3.4 335 10 102560 53
2011-11-23 08:05:29 51°14.496 2°55.072 3.9 332 10 102560 53
2011-11-23 08:05:33 51°14.506 2°55.061 3.5 331 9.9 102550 51
2011-11-23 08:05:38 51°14.519 2°55.049 3.9 337 9.9 102550 51
2011-11-23 08:05:43 51°14.532 2°55.035 3.4 336 10 102550 52
2011-11-23 08:05:48 51°14.545 2°55.022 3 334 10 102550 52
2011-11-23 08:05:53 51°14.558 2°55.008 2.6 334 10 102560 52
2011-11-23 08:05:57 51°14.568 2°54.997 3.4 338 10 102560 52
2011-11-23 08:06:02 51°14.581 2°54.983 3.1 337 10 102550 51
2011-11-23 08:06:07 51°14.594 2°54.969 3.4 339 10 102550 51
2011-11-23 08:06:12 51°14.607 2°54.956 3.5 335 10 102550 51
2011-11-23 08:06:17 51°14.62 2°54.943 3.7 336 10 102550 51
2011-11-23 08:06:22 51°14.633 2°54.929 4.2 334 10 102550 52
2011-11-23 08:06:27 51°14.646 2°54.915 3.5 336 10 102550 52
2011-11-23 08:06:32 51°14.659 2°54.902 4 336 10 102550 51
2011-11-23 08:06:37 51°14.673 2°54.89 4.1 337 10 102550 51
2011-11-23 08:06:41 51°14.684 2°54.88 3.7 336 10 102550 52
2011-11-23 08:06:46 51°14.698 2°54.87 4.1 339 10 102550 52
2011-11-23 08:06:51 51°14.712 2°54.86 4.3 339 10 102550 52
2011-11-23 08:06:56 51°14.727 2°54.85 3.7 340 10 102550 52
2011-11-23 08:07:01 51°14.741 2°54.842 4.6 340 10 102550 51
2011-11-23 08:07:06 51°14.756 2°54.834 4.8 340 10 102550 51
2011-11-23 08:07:11 51°14.771 2°54.827 5 341 10 102550 51
2011-11-23 08:07:16 51°14.786 2°54.822 4.4 342 10 102550 51
2011-11-23 08:07:21 51°14.802 2°54.817 4.7 342 10 102550 53
2011-11-23 08:07:25 51°14.814 2°54.813 4.6 341 10 102550 53
2011-11-23 08:07:31 51°14.832 2°54.809 4.7 342 10 102550 51
2011-11-23 08:07:36 51°14.848 2°54.807 6.1 341 10 102550 51
2011-11-23 08:07:41 51°14.864 2°54.804 5 342 10 102550 52
2011-11-23 08:07:45 51°14.876 2°54.803 5.2 340 10 102550 52
2011-11-23 08:07:51 51°14.895 2°54.801 5.3 339 10 102550 53
2011-11-23 08:07:56 51°14.91 2°54.801 4.4 340 10 102550 53
2011-11-23 08:08:01 51°14.926 2°54.801 5.5 340 10 102550 53
2011-11-23 08:08:06 51°14.942 2°54.802 5.5 340 10 102550 53
2011-11-23 08:08:10 51°14.954 2°54.802 5 340 10 102550 51
2011-11-23 08:08:16 51°14.973 2°54.803 6.3 339 10 102550 51
2011-11-23 08:08:21 51°14.988 2°54.806 5.5 339 10 102550 51
2011-11-23 08:08:26 51°15.004 2°54.81 5.2 339 10 102550 51
2011-11-23 08:08:31 51°15.019 2°54.815 6.4 338 10 102550 53
2011-11-23 08:08:36 51°15.034 2°54.821 6.5 339 10 102550 53
2011-11-23 08:08:41 51°15.049 2°54.828 5.9 338 10 102550 51
2011-11-23 08:08:46 51°15.064 2°54.835 5.3 339 10 102550 51
2011-11-23 08:08:51 51°15.079 2°54.844 5.9 337 10 102550 52
2011-11-23 08:08:56 51°15.093 2°54.853 6 339 10 102550 52
2011-11-23 08:09:01 51°15.107 2°54.864 5.6 338 10 102540 52
2011-11-23 08:09:06 51°15.121 2°54.875 5.4 338 10 102540 52
2011-11-23 08:09:11 51°15.135 2°54.887 4.4 339 10 102550 53
2011-11-23 08:09:16 51°15.148 2°54.9 6.3 338 10 102550 53
2011-11-23 08:09:21 51°15.161 2°54.914 6.2 337 10 102550 53
2011-11-23 08:09:25 51°15.171 2°54.926 6.3 338 10 102550 53
2011-11-23 08:09:31 51°15.186 2°54.944 6.4 337 10 102550 53
2011-11-23 08:09:36 51°15.198 2°54.96 6.1 337 10 102550 53
2011-11-23 08:09:41 51°15.21 2°54.976 6.1 337 10 102550 52
2011-11-23 08:09:46 51°15.222 2°54.993 6.1 337 10 102550 52
2011-11-23 08:09:51 51°15.233 2°55.01 6.2 337 10.1 102540 53
2011-11-23 08:09:56 51°15.245 2°55.026 5.9 338 10.1 102540 53
2011-11-23 08:10:01 51°15.256 2°55.043 6.1 339 10 102550 52
2011-11-23 08:10:05 51°15.265 2°55.056 5.6 338 10 102550 52
2011-11-23 08:10:10 51°15.275 2°55.071 5.9 339 10.1 102540 52
2011-11-23 08:10:16 51°15.287 2°55.089 4.8 338 10.1 102540 52
2011-11-23 08:10:21 51°15.296 2°55.102 4.3 339 10.1 102550 52
2011-11-23 08:10:25 51°15.302 2°55.112 4 340 10.1 102550 52
2011-11-23 08:10:31 51°15.312 2°55.123 3.9 343 10 102550 53
2011-11-23 08:10:36 51°15.321 2°55.131 3.4 343 10 102550 53
2011-11-23 08:10:41 51°15.329 2°55.137 3.2 345 10 102550 53
2011-11-23 08:10:45 51°15.336 2°55.14 2.5 347 10 102550 53
2011-11-23 08:10:51 51°15.345 2°55.142 2.2 347 10 102550 51
2011-11-23 08:10:55 51°15.351 2°55.142 1.7 348 10 102550 51
2011-11-23 08:11:01 51°15.36 2°55.14 1.6 349 10 102550 52
2011-11-23 08:11:05 51°15.366 2°55.138 0.4 350 10 102550 52
2011-11-23 08:11:10 51°15.372 2°55.134 0.8 350 10 102550 52
2011-11-23 08:11:16 51°15.379 2°55.127 0.3 350 10 102550 52
2011-11-23 08:11:21 51°15.384 2°55.12 0.4 350 10 102560 52
2011-11-23 08:11:26 51°15.388 2°55.113 0.1 350 10 102560 52
2011-11-23 08:11:31 51°15.392 2°55.104 0.1 350 10 102550 52
2011-11-23 08:11:36 51°15.394 2°55.095 0.1 349 10 102550 52
2011-11-23 08:11:41 51°15.396 2°55.085 0.1 335 10 102560 52
2011-11-23 08:11:46 51°15.396 2°55.076 0.1 34 10 102560 52
2011-11-23 08:11:51 51°15.396 2°55.066 0.1 28 10 102560 52
2011-11-23 08:11:56 51°15.395 2°55.056 0.7 35 10 102560 52
2011-11-23 08:12:01 51°15.393 2°55.048 0.7 24 10 102550 52
2011-11-23 08:12:06 51°15.391 2°55.039 1.5 32 10 102550 52
2011-11-23 08:12:11 51°15.388 2°55.031 1.4 27 10 102560 52
2011-11-23 08:12:16 51°15.384 2°55.023 1.8 38 10 102560 52
2011-11-23 08:12:22 51°15.378 2°55.015 1.6 25 10.1 102560 53
2011-11-23 08:12:26 51°15.374 2°55.011 2.5 38 10.1 102560 53
2011-11-23 08:12:31 51°15.368 2°55.006 2.6 28 10 102560 53
2011-11-23 08:12:36 51°15.361 2°55.002 3.2 318 10 102560 53
2011-11-23 08:12:41 51°15.355 2°55 3.2 317 10 102560 52
2011-11-23 08:12:46 51°15.348 2°55 2.6 34 10 102560 52
2011-11-23 08:12:51 51°15.341 2°55 2.8 316 10.1 102560 52
2011-11-23 08:12:56 51°15.335 2°55.002 2.8 319 10.1 102560 52
2011-11-23 08:13:02 51°15.327 2°55.003 2.7 319 10.1 102550 52
2011-11-23 08:13:06 51°15.321 2°55.005 2.8 319 10.1 102550 52
2011-11-23 08:13:11 51°15.314 2°55.006 3.2 319 10.1 102560 52
2011-11-23 08:13:16 51°15.307 2°55.007 2.8 318 10.1 102560 52
2011-11-23 08:13:21 51°15.3 2°55.009 2.5 318 10.1 102560 52
2011-11-23 08:13:26 51°15.293 2°55.011 2.8 318 10.1 102560 52
2011-11-23 08:13:31 51°15.287 2°55.013 2.7 317 10.1 102560 52
2011-11-23 08:13:36 51°15.28 2°55.016 3.2 317 10.1 102560 52
2011-11-23 08:13:41 51°15.274 2°55.018 3.2 318 10.1 102560 52
2011-11-23 08:13:46 51°15.268 2°55.021 2.8 318 10.1 102560 52
2011-11-23 08:13:51 51°15.263 2°55.024 2.9 319 10.1 102550 53
2011-11-23 08:13:56 51°15.257 2°55.027 2.8 319 10.1 102550 53
2011-11-23 08:14:01 51°15.252 2°55.03 3.3 319 10.1 102560 52
2011-11-23 08:14:06 51°15.246 2°55.033 3.2 320 10.1 102560 52
2011-11-23 08:14:11 51°15.241 2°55.036 3 320 10.1 102560 52
2011-11-23 08:14:16 51°15.236 2°55.039 3.2 320 10.1 102560 52
2011-11-23 08:14:22 51°15.229 2°55.043 2.7 320 10.1 102560 53
2011-11-23 08:14:26 51°15.225 2°55.045 2.9 321 10.1 102560 53
2011-11-23 08:14:31 51°15.221 2°55.048 3 321 10.1 102560 53
2011-11-23 08:14:37 51°15.215 2°55.051 2.8 320 10.1 102560 53
2011-11-23 08:14:41 51°15.211 2°55.052 2.4 320 10.1 102560 53
2011-11-23 08:14:46 51°15.206 2°55.054 2.3 320 10.1 102560 53
2011-11-23 08:14:51 51°15.202 2°55.055 1.9 318 10.1 102560 52
2011-11-23 08:14:56 51°15.197 2°55.056 3 317 10.1 102560 52
2011-11-23 08:15:01 51°15.193 2°55.056 2.5 317 10.2 102560 53
2011-11-23 08:15:06 51°15.189 2°55.056 3 316 10.2 102560 53
2011-11-23 08:15:11 51°15.185 2°55.056 2.9 316 10.1 102560 52
2011-11-23 08:15:16 51°15.181 2°55.055 2.7 35 10.1 102560 52
2011-11-23 08:15:21 51°15.177 2°55.054 2.2 26 10.1 102560 53
2011-11-23 08:15:26 51°15.173 2°55.053 2.2 40 10.1 102560 53
2011-11-23 08:15:31 51°15.17 2°55.051 2.6 26 10.2 102560 53
2011-11-23 08:15:36 51°15.166 2°55.049 2.1 34 10.2 102560 53
2011-11-23 08:15:41 51°15.163 2°55.046 2.5 23 10.2 102560 52
2011-11-23 08:15:46 51°15.16 2°55.043 2.5 231 10.2 102560 52
2011-11-23 08:15:51 51°15.157 2°55.039 2.7 27 10.2 102560 52
2011-11-23 08:15:56 51°15.154 2°55.036 2.4 235 10.2 102560 52
2011-11-23 08:16:01 51°15.151 2°55.032 1.8 26 10.1 102560 52
2011-11-23 08:16:06 51°15.148 2°55.028 1.9 234 10.1 102560 52
2011-11-23 08:16:11 51°15.146 2°55.024 2.6 21 10.1 102560 51
2011-11-23 08:16:16 51°15.143 2°55.02 0.7 33 10.1 102560 51
2011-11-23 08:16:21 51°15.14 2°55.015 0.2 22 10.1 102560 52
2011-11-23 08:16:26 51°15.137 2°55.01 0.1 35 10.1 102560 52
2011-11-23 08:16:31 51°15.134 2°55.005 0.1 23 10.1 102560 53
2011-11-23 08:16:36 51°15.131 2°55 -999 35 10.1 102560 53
2011-11-23 08:16:42 51°15.127 2°54.994 -999 23 10.1 102560 52
2011-11-23 08:16:46 51°15.125 2°54.99 -999 35 10.1 102560 52
2011-11-23 08:16:51 51°15.121 2°54.984 -999 23 10.1 102560 52
2011-11-23 08:16:57 51°15.117 2°54.978 -999 35 10.1 102560 52
2011-11-23 08:17:01 51°15.114 2°54.974 -999 23 10.1 102570 52
2011-11-23 08:17:06 51°15.111 2°54.968 -999 35 10.1 102570 52
2011-11-23 08:17:11 51°15.107 2°54.963 -999 23 10.1 102560 52
2011-11-23 08:17:16 51°15.103 2°54.957 -999 35 10.1 102560 52
2011-11-23 08:17:22 51°15.099 2°54.951 -999 23 10.1 102560 52
2011-11-23 08:17:26 51°15.095 2°54.947 -999 35 10.1 102560 52
2011-11-23 08:17:31 51°15.091 2°54.942 -999 23 10.1 102560 52
2011-11-23 08:17:36 51°15.087 2°54.937 -999 35 10.1 102560 52
2011-11-23 08:17:41 51°15.082 2°54.934 -999 23 10.1 102560 52
2011-11-23 08:17:46 51°15.078 2°54.931 -999 318 10.1 102560 52
2011-11-23 08:17:51 51°15.073 2°54.93 -999 317 10.1 102560 52
2011-11-23 08:17:56 51°15.068 2°54.929 2.5 318 10.1 102560 52
2011-11-23 08:18:01 51°15.063 2°54.929 3.3 321 10.1 102560 52
2011-11-23 08:18:06 51°15.057 2°54.93 3.3 323 10.1 102560 52
2011-11-23 08:18:11 51°15.052 2°54.932 2.7 323 10.1 102560 53
2011-11-23 08:18:16 51°15.048 2°54.935 2.8 326 10.1 102560 53
2011-11-23 08:18:21 51°15.043 2°54.939 3.1 327 10.1 102560 52
2011-11-23 08:18:26 51°15.038 2°54.944 2.8 330 10.1 102560 52
2011-11-23 08:18:31 51°15.034 2°54.95 2.7 329 10.1 102560 53
2011-11-23 08:18:36 51°15.03 2°54.956 3.2 331 10.1 102560 53
2011-11-23 08:18:41 51°15.027 2°54.963 3 331 10.2 102570 51
2011-11-23 08:18:46 51°15.024 2°54.972 2.9 336 10.2 102570 51
2011-11-23 08:18:51 51°15.021 2°54.98 3.2 336 10.2 102560 52
2011-11-23 08:18:56 51°15.02 2°54.989 2.9 339 10.2 102560 52
2011-11-23 08:19:01 51°15.019 2°54.999 3.3 341 10.2 102570 51
2011-11-23 08:19:06 51°15.018 2°55.008 2.7 341 10.2 102570 51
2011-11-23 08:19:11 51°15.018 2°55.018 2.5 344 10.2 102560 52
2011-11-23 08:19:16 51°15.019 2°55.028 2.6 345 10.2 102560 52
2011-11-23 08:19:22 51°15.021 2°55.039 2.6 348 10.2 102560 53
2011-11-23 08:19:26 51°15.022 2°55.046 2.8 350 10.2 102560 53
2011-11-23 08:19:31 51°15.025 2°55.055 2.5 350 10.2 102570 51
2011-11-23 08:19:36 51°15.029 2°55.063 2.3 353 10.2 102570 51
2011-11-23 08:19:42 51°15.033 2°55.072 0.5 355 10.2 102570 52
2011-11-23 08:19:46 51°15.037 2°55.078 2.2 358 10.2 102570 52
2011-11-23 08:19:51 51°15.042 2°55.084 1.7 356 10.2 102570 52
2011-11-23 08:19:56 51°15.047 2°55.089 1.2 359 10.2 102570 52
2011-11-23 08:20:01 51°15.052 2°55.093 1.3 1 10.2 102570 52
2011-11-23 08:20:06 51°15.058 2°55.095 0.7 1 10.2 102570 52
2011-11-23 08:20:11 51°15.063 2°55.097 0.6 1 10.2 102570 52
2011-11-23 08:20:16 51°15.07 2°55.098 0.1 1 10.2 102570 52
2011-11-23 08:20:21 51°15.076 2°55.097 0.1 355 10.3 102570 52
2011-11-23 08:20:26 51°15.084 2°55.097 0.1 355 10.3 102570 52
2011-11-23 08:20:31 51°15.091 2°55.095 0.1 355 10.3 102570 52
2011-11-23 08:20:36 51°15.099 2°55.092 0.7 351 10.3 102570 52
2011-11-23 08:20:41 51°15.108 2°55.089 1 352 10.3 102570 52
2011-11-23 08:20:46 51°15.117 2°55.086 1.6 351 10.3 102570 52
2011-11-23 08:20:51 51°15.126 2°55.083 1.6 350 10.3 102570 52
2011-11-23 08:20:56 51°15.136 2°55.079 1.5 345 10.3 102570 52
2011-11-23 08:21:02 51°15.148 2°55.075 1.3 345 10.3 102570 53
2011-11-23 08:21:06 51°15.156 2°55.071 2.4 344 10.3 102570 53
2011-11-23 08:21:11 51°15.167 2°55.067 2.3 344 10.3 102570 51
2011-11-23 08:21:16 51°15.178 2°55.062 2.5 343 10.3 102570 51
2011-11-23 08:21:21 51°15.189 2°55.059 2.7 344 10.3 102570 52
2011-11-23 08:21:26 51°15.201 2°55.055 0.2 341 10.3 102570 52
2011-11-23 08:21:31 51°15.212 2°55.055 0.1 341 10.3 102570 51
2011-11-23 08:21:36 51°15.224 2°55.056 0.1 342 10.3 102570 51
2011-11-23 08:21:41 51°15.236 2°55.059 -999 341 10.3 102570 52
2011-11-23 08:21:46 51°15.248 2°55.062 -999 343 10.3 102570 52
2011-11-23 08:21:51 51°15.26 2°55.066 -999 344 10.3 102570 52
2011-11-23 08:21:56 51°15.273 2°55.071 -999 343 10.3 102570 52
2011-11-23 08:22:02 51°15.288 2°55.077 -999 344 10.3 102570 52
2011-11-23 08:22:06 51°15.298 2°55.081 -999 343 10.3 102570 52
2011-11-23 08:22:11 51°15.31 2°55.087 -999 342 10.3 102570 52
2011-11-23 08:22:16 51°15.323 2°55.093 -999 343 10.3 102570 52
2011-11-23 08:22:22 51°15.338 2°55.101 -999 344 10.3 102570 52
2011-11-23 08:22:26 51°15.348 2°55.107 -999 344 10.3 102570 52
2011-11-23 08:22:31 51°15.36 2°55.116 -999 344 10.3 102560 52
2011-11-23 08:22:36 51°15.373 2°55.125 -999 344 10.3 102560 52
2011-11-23 08:22:41 51°15.385 2°55.134 -999 344 10.3 102570 52
2011-11-23 08:22:46 51°15.397 2°55.144 -999 343 10.3 102570 52
2011-11-23 08:22:51 51°15.409 2°55.154 -999 343 10.3 102560 52
2011-11-23 08:22:56 51°15.421 2°55.165 -999 344 10.3 102560 52
2011-11-23 08:23:01 51°15.432 2°55.177 -999 344 10.3 102560 52
2011-11-23 08:23:06 51°15.444 2°55.189 -999 344 10.3 102560 52
2011-11-23 08:23:11 51°15.455 2°55.203 -999 344 10.3 102570 52
2011-11-23 08:23:16 51°15.465 2°55.217 -999 343 10.3 102570 52
2011-11-23 08:23:21 51°15.475 2°55.232 -999 343 10.2 102570 52
2011-11-23 08:23:26 51°15.485 2°55.247 -999 344 10.2 102570 52
2011-11-23 08:23:31 51°15.494 2°55.262 -999 343 10.2 102570 52
2011-11-23 08:23:36 51°15.502 2°55.277 -999 344 10.2 102570 52
2011-11-23 08:23:41 51°15.51 2°55.293 -999 344 10.2 102570 52
2011-11-23 08:23:46 51°15.517 2°55.307 -999 345 10.2 102570 52
2011-11-23 08:23:51 51°15.523 2°55.321 -999 344 10.2 102560 52
2011-11-23 08:23:56 51°15.529 2°55.334 -999 347 10.2 102560 52
2011-11-23 08:24:01 51°15.535 2°55.348 -999 347 10.2 102570 52
2011-11-23 08:24:06 51°15.54 2°55.36 -999 347 10.2 102570 52
2011-11-23 08:24:11 51°15.545 2°55.373 -999 346 10.2 102570 51
2011-11-23 08:24:16 51°15.55 2°55.385 -999 347 10.2 102570 51
2011-11-23 08:24:21 51°15.554 2°55.397 -999 348 10.2 102570 52
2011-11-23 08:24:26 51°15.559 2°55.408 -999 348 10.2 102570 52
2011-11-23 08:24:31 51°15.563 2°55.419 -999 348 10.2 102570 52
2011-11-23 08:24:36 51°15.567 2°55.43 -999 348 10.2 102570 52
2011-11-23 08:24:41 51°15.571 2°55.44 -999 349 10.1 102560 52
2011-11-23 08:24:46 51°15.576 2°55.45 -999 352 10.1 102560 52
2011-11-23 08:24:51 51°15.58 2°55.46 -999 352 10.1 102570 52
2011-11-23 08:24:56 51°15.584 2°55.47 -999 351 10.1 102570 52
2011-11-23 08:25:01 51°15.588 2°55.479 -999 352 10.1 102570 52
2011-11-23 08:25:06 51°15.593 2°55.489 -999 352 10.1 102570 52
2011-11-23 08:25:11 51°15.597 2°55.498 -999 352 10.1 102570 52
2011-11-23 08:25:16 51°15.601 2°55.507 -999 354 10.1 102570 52
2011-11-23 08:25:21 51°15.606 2°55.517 -999 354 10.1 102560 52
2011-11-23 08:25:26 51°15.61 2°55.526 -999 352 10.1 102560 52
2011-11-23 08:25:31 51°15.615 2°55.535 -999 352 10.1 102570 52
2011-11-23 08:25:36 51°15.619 2°55.544 -999 353 10.1 102570 52
2011-11-23 08:25:41 51°15.624 2°55.554 -999 352 10.1 102570 52
2011-11-23 08:25:46 51°15.629 2°55.563 -999 352 10.1 102570 52
2011-11-23 08:25:51 51°15.634 2°55.572 -999 351 10.1 102570 52
2011-11-23 08:25:57 51°15.64 2°55.584 -999 351 10.1 102570 52
2011-11-23 08:26:01 51°15.645 2°55.592 -999 352 10.1 102570 52
2011-11-23 08:26:06 51°15.65 2°55.602 -999 350 10.1 102570 52
2011-11-23 08:26:11 51°15.656 2°55.613 -999 350 10.1 102570 52
2011-11-23 08:26:16 51°15.661 2°55.623 -999 350 10.1 102570 52
2011-11-23 08:26:21 51°15.666 2°55.635 -999 351 10.1 102570 52
2011-11-23 08:26:26 51°15.672 2°55.645 -999 351 10.1 102570 52
2011-11-23 08:26:31 51°15.678 2°55.656 -999 350 10.1 102570 52
2011-11-23 08:26:36 51°15.684 2°55.668 -999 349 10.1 102570 52
2011-11-23 08:26:41 51°15.689 2°55.679 -999 348 10.1 102570 52
2011-11-23 08:26:46 51°15.695 2°55.69 -999 350 10.1 102570 52
2011-11-23 08:26:51 51°15.701 2°55.702 -999 348 10.1 102570 51
2011-11-23 08:26:56 51°15.707 2°55.713 -999 350 10.1 102570 51
2011-11-23 08:27:01 51°15.712 2°55.724 -999 349 10 102570 52
2011-11-23 08:27:06 51°15.718 2°55.736 -999 348 10 102570 52
2011-11-23 08:27:11 51°15.723 2°55.747 -999 348 10 102570 52
2011-11-23 08:27:16 51°15.728 2°55.759 -999 349 10 102570 52
2011-11-23 08:27:21 51°15.733 2°55.77 -999 347 10 102570 52
2011-11-23 08:27:26 51°15.738 2°55.782 -999 348 10 102570 52
2011-11-23 08:27:31 51°15.743 2°55.794 -999 348 10.1 102570 52
2011-11-23 08:27:36 51°15.747 2°55.806 -999 348 10.1 102570 52
2011-11-23 08:27:41 51°15.752 2°55.818 -999 348 10 102570 52
2011-11-23 08:27:46 51°15.756 2°55.829 -999 348 10 102570 52
2011-11-23 08:27:51 51°15.76 2°55.841 -999 348 10.1 102570 52
2011-11-23 08:27:56 51°15.764 2°55.853 -999 348 10.1 102570 52
2011-11-23 08:28:02 51°15.77 2°55.867 -999 348 10 102570 52
2011-11-23 08:28:06 51°15.773 2°55.876 -999 348 10 102570 52
2011-11-23 08:28:11 51°15.777 2°55.888 -999 348 10 102570 52
2011-11-23 08:28:16 51°15.781 2°55.9 -999 348 10 102570 52
2011-11-23 08:28:21 51°15.785 2°55.912 -999 348 10 102570 52
2011-11-23 08:28:26 51°15.79 2°55.924 -999 348 10 102570 52
2011-11-23 08:28:31 51°15.795 2°55.936 -999 349 10 102570 52
2011-11-23 08:28:36 51°15.8 2°55.947 -999 349 10 102570 52
2011-11-23 08:28:42 51°15.805 2°55.962 -999 346 10 102570 52
2011-11-23 08:28:46 51°15.809 2°55.971 -999 348 10 102570 52
2011-11-23 08:28:51 51°15.815 2°55.983 -999 347 10 102570 52
2011-11-23 08:28:56 51°15.819 2°55.995 -999 348 10 102570 52
2011-11-23 08:29:02 51°15.823 2°56.009 -999 348 10 102570 52
2011-11-23 08:29:06 51°15.827 2°56.019 -999 348 10 102570 52
2011-11-23 08:29:11 51°15.831 2°56.031 -999 348 10 102570 52
2011-11-23 08:29:16 51°15.835 2°56.042 -999 347 10 102570 52
2011-11-23 08:29:21 51°15.84 2°56.054 -999 347 10 102570 52
2011-11-23 08:29:26 51°15.844 2°56.066 -999 345 10 102570 52
2011-11-23 08:29:31 51°15.848 2°56.078 -999 348 10 102570 51
2011-11-23 08:29:36 51°15.853 2°56.09 -999 347 10 102570 51
2011-11-23 08:29:41 51°15.857 2°56.101 -999 347 10 102570 52
2011-11-23 08:29:46 51°15.86 2°56.113 -999 348 10 102570 52
2011-11-23 08:29:51 51°15.864 2°56.125 -999 346 10 102570 52
2011-11-23 08:29:56 51°15.869 2°56.136 -999 346 10 102570 52
2011-11-23 08:30:01 51°15.873 2°56.148 -999 348 10 102580 52
2011-11-23 08:30:06 51°15.877 2°56.16 -999 347 10 102580 52
2011-11-23 08:30:11 51°15.882 2°56.172 -999 347 10 102570 52
2011-11-23 08:30:16 51°15.886 2°56.183 -999 347 10 102570 52
2011-11-23 08:30:22 51°15.892 2°56.197 -999 347 10 102560 52
2011-11-23 08:30:26 51°15.895 2°56.207 -999 347 10 102560 52
2011-11-23 08:30:31 51°15.9 2°56.218 -999 347 10 102570 52
2011-11-23 08:30:36 51°15.904 2°56.23 -999 347 10 102570 52
2011-11-23 08:30:41 51°15.909 2°56.242 -999 348 10 102570 52
2011-11-23 08:30:46 51°15.913 2°56.253 -999 345 10 102570 52
2011-11-23 08:30:51 51°15.918 2°56.265 -999 347 10 102570 52
2011-11-23 08:30:56 51°15.922 2°56.276 -999 346 10 102570 52
2011-11-23 08:31:02 51°15.927 2°56.29 -999 348 10 102570 52
2011-11-23 08:31:06 51°15.931 2°56.3 -999 346 10 102570 52
2011-11-23 08:31:11 51°15.936 2°56.311 -999 346 10 102570 52
2011-11-23 08:31:16 51°15.941 2°56.323 -999 348 10 102570 52
2011-11-23 08:31:21 51°15.946 2°56.335 -999 345 10 102570 52
2011-11-23 08:31:26 51°15.95 2°56.346 -999 347 10 102570 52
2011-11-23 08:31:31 51°15.954 2°56.358 -999 347 9.9 102570 52
2011-11-23 08:31:36 51°15.959 2°56.37 -999 347 9.9 102570 52
2011-11-23 08:31:41 51°15.964 2°56.381 -999 345 9.9 102570 52
2011-11-23 08:31:46 51°15.968 2°56.393 -999 347 9.9 102570 52
2011-11-23 08:31:51 51°15.973 2°56.404 -999 346 9.9 102570 52
2011-11-23 08:31:56 51°15.978 2°56.416 -999 348 9.9 102570 52
2011-11-23 08:32:01 51°15.983 2°56.428 -999 345 9.9 102570 52
2011-11-23 08:32:06 51°15.987 2°56.439 -999 347 9.9 102570 52
2011-11-23 08:32:11 51°15.992 2°56.451 -999 345 9.9 102570 51
2011-11-23 08:32:16 51°15.997 2°56.462 -999 348 9.9 102570 51
2011-11-23 08:32:21 51°16.002 2°56.474 -999 345 9.9 102570 52
2011-11-23 08:32:26 51°16.006 2°56.486 -999 347 9.9 102570 52
2011-11-23 08:32:31 51°16.011 2°56.498 -999 347 9.9 102570 52
2011-11-23 08:32:36 51°16.015 2°56.509 -999 347 9.9 102570 52
2011-11-23 08:32:41 51°16.02 2°56.521 -999 347 9.9 102570 52
2011-11-23 08:32:46 51°16.025 2°56.533 -999 347 9.9 102570 52
2011-11-23 08:32:51 51°16.029 2°56.544 -999 346 9.9 102570 52
2011-11-23 08:32:56 51°16.034 2°56.555 -999 346 9.9 102570 52
2011-11-23 08:33:02 51°16.039 2°56.57 -999 345 9.9 102570 52
2011-11-23 08:33:06 51°16.043 2°56.579 -999 346 9.9 102570 52
2011-11-23 08:33:11 51°16.047 2°56.591 -999 345 9.9 102570 52
2011-11-23 08:33:17 51°16.053 2°56.605 -999 345 9.9 102570 52
2011-11-23 08:33:22 51°16.057 2°56.617 -999 347 9.9 102570 52
2011-11-23 08:33:26 51°16.061 2°56.627 -999 345 9.9 102570 52
2011-11-23 08:33:31 51°16.065 2°56.638 -999 345 9.9 102570 52
2011-11-23 08:33:36 51°16.07 2°56.65 -999 345 9.9 102570 52
2011-11-23 08:33:41 51°16.075 2°56.662 -999 345 9.9 102570 52
2011-11-23 08:33:46 51°16.079 2°56.674 -999 345 9.9 102570 52
2011-11-23 08:33:51 51°16.083 2°56.686 -999 345 9.9 102570 52
2011-11-23 08:33:56 51°16.088 2°56.698 -999 345 9.9 102570 52
2011-11-23 08:34:01 51°16.092 2°56.709 -999 346 9.9 102570 52
2011-11-23 08:34:06 51°16.097 2°56.721 -999 345 9.9 102570 52
2011-11-23 08:34:11 51°16.101 2°56.733 -999 345 9.9 102570 52
2011-11-23 08:34:16 51°16.106 2°56.745 -999 345 9.9 102570 52
2011-11-23 08:34:22 51°16.111 2°56.76 -999 345 9.9 102570 52
2011-11-23 08:34:26 51°16.115 2°56.77 -999 345 9.9 102570 52
2011-11-23 08:34:31 51°16.119 2°56.781 -999 345 9.9 102570 52
2011-11-23 08:34:36 51°16.124 2°56.793 -999 345 9.9 102570 52
2011-11-23 08:34:41 51°16.128 2°56.806 -999 344 9.9 102570 52
2011-11-23 08:34:46 51°16.132 2°56.819 -999 345 9.9 102570 52
2011-11-23 08:34:51 51°16.137 2°56.831 -999 345 9.9 102570 51
2011-11-23 08:34:56 51°16.141 2°56.843 -999 345 9.9 102570 51
2011-11-23 08:35:01 51°16.146 2°56.855 -999 345 9.9 102570 52
2011-11-23 08:35:06 51°16.15 2°56.868 -999 345 9.9 102570 52
2011-11-23 08:35:11 51°16.155 2°56.88 -999 345 9.9 102570 52
2011-11-23 08:35:16 51°16.159 2°56.893 -999 344 9.9 102570 52
2011-11-23 08:35:21 51°16.163 2°56.906 -999 344 9.9 102570 52
2011-11-23 08:35:26 51°16.167 2°56.918 -999 344 9.9 102570 52
2011-11-23 08:35:31 51°16.172 2°56.931 -999 344 9.9 102570 52
2011-11-23 08:35:36 51°16.176 2°56.943 -999 344 9.9 102570 52
2011-11-23 08:35:41 51°16.18 2°56.956 -999 344 9.9 102570 52
2011-11-23 08:35:46 51°16.185 2°56.968 -999 345 9.9 102570 52
2011-11-23 08:35:51 51°16.189 2°56.981 -999 344 9.9 102560 52
2011-11-23 08:35:56 51°16.193 2°56.993 -999 344 9.9 102560 52
2011-11-23 08:36:02 51°16.198 2°57.008 -999 344 9.9 102570 52
2011-11-23 08:36:06 51°16.202 2°57.018 -999 344 9.9 102570 52
2011-11-23 08:36:11 51°16.206 2°57.03 -999 343 9.9 102570 52
2011-11-23 08:36:16 51°16.211 2°57.043 -999 344 9.9 102570 52
2011-11-23 08:36:21 51°16.215 2°57.055 -999 344 9.9 102570 52
2011-11-23 08:36:26 51°16.22 2°57.068 -999 344 9.9 102570 52
2011-11-23 08:36:31 51°16.225 2°57.08 -999 343 9.9 102570 52
2011-11-23 08:36:36 51°16.229 2°57.092 -999 344 9.9 102570 52
2011-11-23 08:36:41 51°16.234 2°57.104 -999 343 9.9 102570 52
2011-11-23 08:36:46 51°16.239 2°57.116 -999 344 9.9 102570 52
2011-11-23 08:36:51 51°16.243 2°57.129 -999 343 9.9 102570 52
2011-11-23 08:36:56 51°16.248 2°57.141 -999 343 9.9 102570 52
2011-11-23 08:37:02 51°16.254 2°57.155 -999 343 9.9 102570 52
2011-11-23 08:37:06 51°16.257 2°57.165 -999 343 9.9 102570 52
2011-11-23 08:37:11 51°16.263 2°57.177 -999 343 10 102570 52
2011-11-23 08:37:17 51°16.268 2°57.192 -999 342 10 102570 52
2011-11-23 08:37:21 51°16.272 2°57.202 -999 343 10 102570 52
2011-11-23 08:37:26 51°16.277 2°57.214 -999 343 10 102570 52
2011-11-23 08:37:31 51°16.282 2°57.227 -999 342 10 102570 51
2011-11-23 08:37:36 51°16.286 2°57.239 -999 343 10 102570 51
2011-11-23 08:37:42 51°16.292 2°57.254 -999 342 10 102570 52
2011-11-23 08:37:46 51°16.296 2°57.264 -999 343 10 102570 52
2011-11-23 08:37:51 51°16.301 2°57.277 -999 343 10 102570 52
2011-11-23 08:37:56 51°16.306 2°57.289 -999 342 10 102570 52
2011-11-23 08:38:01 51°16.311 2°57.301 -999 342 10 102570 52
2011-11-23 08:38:06 51°16.316 2°57.313 -999 344 10 102570 52
2011-11-23 08:38:11 51°16.32 2°57.326 -999 342 10 102570 52
2011-11-23 08:38:16 51°16.325 2°57.338 -999 341 10 102570 52
2011-11-23 08:38:21 51°16.329 2°57.35 -999 343 10 102570 52
2011-11-23 08:38:26 51°16.334 2°57.362 -999 344 10 102570 52
2011-11-23 08:38:31 51°16.338 2°57.374 -999 342 10.1 102570 52
2011-11-23 08:38:36 51°16.343 2°57.386 -999 342 10.1 102570 52
2011-11-23 08:38:42 51°16.348 2°57.4 -999 343 10.1 102570 52
2011-11-23 08:38:46 51°16.352 2°57.41 -999 342 10.1 102570 52
2011-11-23 08:38:51 51°16.357 2°57.422 -999 342 10.1 102570 52
2011-11-23 08:38:56 51°16.361 2°57.434 -999 342 10.1 102570 52
2011-11-23 08:39:01 51°16.366 2°57.446 -999 343 10.1 102570 52
2011-11-23 08:39:06 51°16.37 2°57.458 -999 343 10.1 102570 52
2011-11-23 08:39:11 51°16.375 2°57.47 -999 342 10.1 102570 52
2011-11-23 08:39:16 51°16.379 2°57.482 -999 343 10.1 102570 52
2011-11-23 08:39:21 51°16.384 2°57.494 -999 342 10.1 102570 52
2011-11-23 08:39:26 51°16.389 2°57.505 -999 340 10.1 102570 52
2011-11-23 08:39:31 51°16.393 2°57.517 -999 341 10.1 102570 52
2011-11-23 08:39:36 51°16.397 2°57.53 -999 342 10.1 102570 52
2011-11-23 08:39:42 51°16.403 2°57.545 -999 342 10.1 102570 52
2011-11-23 08:39:46 51°16.406 2°57.554 -999 342 10.1 102570 52
2011-11-23 08:39:51 51°16.411 2°57.567 -999 341 10.1 102570 52
2011-11-23 08:39:56 51°16.415 2°57.579 -999 341 10.1 102570 52
2011-11-23 08:40:01 51°16.419 2°57.591 -999 341 10.1 102580 52
2011-11-23 08:40:06 51°16.424 2°57.603 -999 340 10.1 102580 52
2011-11-23 08:40:11 51°16.428 2°57.615 -999 339 10.1 102570 51
2011-11-23 08:40:16 51°16.432 2°57.627 -999 340 10.1 102570 51
2011-11-23 08:40:22 51°16.437 2°57.642 -999 340 10.1 102570 52
2011-11-23 08:40:26 51°16.44 2°57.651 -999 340 10.1 102570 52
2011-11-23 08:40:31 51°16.444 2°57.663 -999 340 10.1 102580 52
2011-11-23 08:40:36 51°16.448 2°57.675 -999 340 10.1 102580 52
2011-11-23 08:40:41 51°16.452 2°57.687 -999 340 10.1 102570 52
2011-11-23 08:40:46 51°16.456 2°57.699 -999 340 10.1 102570 52
2011-11-23 08:40:51 51°16.46 2°57.711 -999 341 10.1 102570 52
2011-11-23 08:40:56 51°16.465 2°57.723 -999 342 10.1 102570 52
2011-11-23 08:41:01 51°16.469 2°57.735 -999 342 10.1 102570 52
2011-11-23 08:41:06 51°16.473 2°57.747 -999 343 10.1 102570 52
2011-11-23 08:41:11 51°16.477 2°57.759 -999 343 10.1 102570 52
2011-11-23 08:41:16 51°16.481 2°57.771 -999 342 10.1 102570 52
2011-11-23 08:41:21 51°16.486 2°57.783 -999 343 10.1 102580 52
2011-11-23 08:41:26 51°16.49 2°57.795 -999 343 10.1 102580 52
2011-11-23 08:41:31 51°16.494 2°57.807 -999 343 10.1 102570 52
2011-11-23 08:41:36 51°16.498 2°57.819 -999 343 10.1 102570 52
2011-11-23 08:41:41 51°16.503 2°57.831 -999 343 10.1 102570 52
2011-11-23 08:41:46 51°16.507 2°57.844 -999 343 10.1 102570 52
2011-11-23 08:41:51 51°16.512 2°57.856 -999 344 10.1 102570 52
2011-11-23 08:41:56 51°16.516 2°57.867 -999 343 10.1 102570 52
2011-11-23 08:42:01 51°16.52 2°57.879 -999 343 10.1 102570 52
2011-11-23 08:42:06 51°16.524 2°57.89 -999 343 10.1 102570 52
2011-11-23 08:42:11 51°16.528 2°57.901 -999 343 10.1 102580 52
2011-11-23 08:42:16 51°16.532 2°57.912 -999 344 10.1 102580 52
2011-11-23 08:42:21 51°16.536 2°57.922 -999 344 10.1 102570 52
2011-11-23 08:42:26 51°16.541 2°57.933 -999 344 10.1 102570 52
2011-11-23 08:42:31 51°16.545 2°57.943 -999 344 10.1 102570 52
2011-11-23 08:42:36 51°16.549 2°57.954 -999 344 10.1 102570 52
2011-11-23 08:42:41 51°16.553 2°57.964 -999 344 10.2 102570 52
2011-11-23 08:42:46 51°16.557 2°57.974 -999 344 10.2 102570 52
2011-11-23 08:42:51 51°16.561 2°57.984 -999 344 10.1 102570 51
2011-11-23 08:42:56 51°16.565 2°57.995 -999 346 10.1 102570 51
2011-11-23 08:43:01 51°16.569 2°58.004 -999 346 10.2 102570 52
2011-11-23 08:43:06 51°16.573 2°58.014 -999 346 10.2 102570 52
2011-11-23 08:43:11 51°16.577 2°58.025 -999 346 10.2 102570 52
2011-11-23 08:43:16 51°16.581 2°58.034 -999 346 10.2 102570 52
2011-11-23 08:43:21 51°16.585 2°58.044 -999 346 10.1 102570 52
2011-11-23 08:43:26 51°16.588 2°58.055 -999 345 10.1 102570 52
2011-11-23 08:43:31 51°16.592 2°58.064 -999 347 10.2 102570 52
2011-11-23 08:43:36 51°16.596 2°58.075 -999 345 10.2 102570 52
2011-11-23 08:43:41 51°16.6 2°58.085 -999 343 10.2 102570 52
2011-11-23 08:43:46 51°16.603 2°58.095 -999 346 10.2 102570 52
2011-11-23 08:43:51 51°16.607 2°58.104 -999 345 10.2 102570 52
2011-11-23 08:43:56 51°16.611 2°58.115 -999 344 10.2 102570 52
2011-11-23 08:44:01 51°16.614 2°58.125 -999 345 10.2 102570 52
2011-11-23 08:44:06 51°16.618 2°58.137 -999 344 10.2 102570 52
2011-11-23 08:44:11 51°16.623 2°58.147 -999 346 10.2 102570 52
2011-11-23 08:44:16 51°16.626 2°58.158 -999 345 10.2 102570 52
2011-11-23 08:44:21 51°16.63 2°58.169 -999 344 10.2 102570 52
2011-11-23 08:44:26 51°16.634 2°58.18 -999 345 10.2 102570 52
2011-11-23 08:44:31 51°16.638 2°58.19 -999 344 10.2 102580 52
2011-11-23 08:44:36 51°16.642 2°58.201 -999 344 10.2 102580 52
2011-11-23 08:44:41 51°16.646 2°58.212 -999 347 10.2 102580 52
2011-11-23 08:44:46 51°16.65 2°58.224 -999 347 10.2 102580 52
2011-11-23 08:44:51 51°16.654 2°58.235 -999 344 10.2 102570 52
2011-11-23 08:44:56 51°16.658 2°58.245 -999 344 10.2 102570 52
2011-11-23 08:45:01 51°16.662 2°58.256 -999 346 10.2 102570 52
2011-11-23 08:45:06 51°16.665 2°58.268 -999 344 10.2 102570 52
2011-11-23 08:45:11 51°16.669 2°58.279 -999 343 10.2 102570 52
2011-11-23 08:45:16 51°16.673 2°58.29 -999 344 10.2 102570 52
2011-11-23 08:45:21 51°16.677 2°58.302 -999 344 10.2 102580 52
2011-11-23 08:45:26 51°16.681 2°58.313 -999 343 10.2 102580 52
2011-11-23 08:45:31 51°16.685 2°58.324 -999 345 10.2 102580 51
2011-11-23 08:45:36 51°16.689 2°58.335 -999 345 10.2 102580 51
2011-11-23 08:45:41 51°16.693 2°58.347 -999 344 10.2 102570 52
2011-11-23 08:45:46 51°16.697 2°58.358 -999 344 10.2 102570 52
2011-11-23 08:45:51 51°16.701 2°58.369 -999 345 10.2 102570 52
2011-11-23 08:45:56 51°16.705 2°58.38 -999 344 10.2 102570 52
2011-11-23 08:46:01 51°16.709 2°58.39 -999 345 10.2 102580 52
2011-11-23 08:46:06 51°16.712 2°58.402 -999 344 10.2 102580 52
2011-11-23 08:46:11 51°16.716 2°58.414 -999 344 10.2 102580 52
2011-11-23 08:46:16 51°16.72 2°58.425 -999 344 10.2 102580 52
2011-11-23 08:46:21 51°16.723 2°58.436 -999 345 10.2 102580 52
2011-11-23 08:46:26 51°16.728 2°58.447 -999 346 10.2 102580 52
2011-11-23 08:46:30 51°16.731 2°58.456 -999 346 10.3 102580 52
2011-11-23 08:46:36 51°16.735 2°58.469 -999 345 10.3 102580 52
2011-11-23 08:46:41 51°16.739 2°58.48 -999 345 10.2 102570 52
2011-11-23 08:46:46 51°16.744 2°58.491 -999 347 10.2 102570 52
2011-11-23 08:46:50 51°16.747 2°58.499 -999 347 10.3 102580 52
2011-11-23 08:46:56 51°16.751 2°58.512 -999 346 10.3 102580 52
2011-11-23 08:47:01 51°16.755 2°58.522 -999 346 10.2 102580 52
2011-11-23 08:47:06 51°16.759 2°58.533 -999 348 10.2 102580 52
2011-11-23 08:47:10 51°16.762 2°58.542 -999 348 10.3 102580 52
2011-11-23 08:47:16 51°16.767 2°58.554 -999 348 10.3 102580 52
2011-11-23 08:47:21 51°16.771 2°58.565 -999 348 10.2 102580 52
2011-11-23 08:47:26 51°16.775 2°58.576 -999 348 10.2 102580 52
2011-11-23 08:47:30 51°16.778 2°58.585 -999 348 10.3 102580 52
2011-11-23 08:47:36 51°16.782 2°58.598 -999 348 10.3 102580 52
2011-11-23 08:47:41 51°16.786 2°58.609 -999 348 10.3 102580 52
2011-11-23 08:47:46 51°16.79 2°58.62 -999 348 10.3 102580 52
2011-11-23 08:47:51 51°16.793 2°58.631 -999 348 10.3 102580 52
2011-11-23 08:47:56 51°16.797 2°58.642 -999 348 10.3 102580 52
2011-11-23 08:48:01 51°16.801 2°58.653 -999 348 10.3 102580 52
2011-11-23 08:48:06 51°16.804 2°58.664 -999 348 10.3 102580 52
2011-11-23 08:48:10 51°16.807 2°58.673 -999 347 10.3 102580 51
2011-11-23 08:48:16 51°16.811 2°58.686 -999 348 10.3 102580 51
2011-11-23 08:48:21 51°16.814 2°58.698 -999 348 10.3 102580 52
2011-11-23 08:48:26 51°16.817 2°58.709 -999 348 10.3 102580 52
2011-11-23 08:48:30 51°16.82 2°58.718 -999 348 10.3 102580 52
2011-11-23 08:48:36 51°16.824 2°58.731 -999 348 10.3 102580 52
2011-11-23 08:48:41 51°16.827 2°58.743 -999 348 10.3 102580 52
2011-11-23 08:48:46 51°16.831 2°58.754 -999 348 10.3 102580 52
2011-11-23 08:48:50 51°16.834 2°58.763 -999 348 10.3 102580 52
2011-11-23 08:48:56 51°16.838 2°58.777 -999 348 10.3 102580 52
2011-11-23 08:49:01 51°16.841 2°58.788 -999 348 10.3 102580 52
2011-11-23 08:49:06 51°16.844 2°58.8 -999 349 10.3 102580 52
2011-11-23 08:49:10 51°16.846 2°58.808 -999 349 10.3 102580 52
2011-11-23 08:49:16 51°16.85 2°58.822 -999 349 10.3 102580 52
2011-11-23 08:49:21 51°16.853 2°58.834 -999 352 10.3 102580 52
2011-11-23 08:49:26 51°16.857 2°58.845 -999 352 10.3 102580 52
2011-11-23 08:49:30 51°16.859 2°58.854 -999 353 10.3 102580 52
2011-11-23 08:49:36 51°16.863 2°58.868 -999 353 10.3 102580 52
2011-11-23 08:49:41 51°16.866 2°58.879 -999 353 10.3 102580 52
2011-11-23 08:49:46 51°16.87 2°58.89 -999 353 10.3 102580 52
2011-11-23 08:49:50 51°16.873 2°58.899 -999 353 10.3 102580 52
2011-11-23 08:49:56 51°16.877 2°58.913 -999 353 10.3 102580 52
2011-11-23 08:50:01 51°16.88 2°58.924 -999 353 10.2 102580 52
2011-11-23 08:50:06 51°16.883 2°58.935 -999 356 10.2 102580 52
2011-11-23 08:50:10 51°16.886 2°58.944 -999 356 10.2 102580 52
2011-11-23 08:50:16 51°16.89 2°58.958 -999 354 10.2 102580 52
2011-11-23 08:50:21 51°16.893 2°58.969 -999 354 10.2 102580 52
2011-11-23 08:50:26 51°16.897 2°58.98 -999 354 10.2 102580 52
2011-11-23 08:50:31 51°16.9 2°58.992 -999 354 10.2 102580 52
2011-11-23 08:50:36 51°16.904 2°59.003 -999 354 10.2 102580 52
2011-11-23 08:50:41 51°16.907 2°59.014 -999 354 10.2 102590 52
2011-11-23 08:50:46 51°16.911 2°59.025 -999 354 10.2 102590 52
2011-11-23 08:50:50 51°16.914 2°59.034 -999 354 10.2 102580 51
2011-11-23 08:50:56 51°16.918 2°59.048 -999 353 10.2 102580 51
2011-11-23 08:51:01 51°16.921 2°59.059 -999 353 10.2 102580 52
2011-11-23 08:51:06 51°16.925 2°59.07 -999 353 10.2 102580 52
2011-11-23 08:51:10 51°16.928 2°59.079 -999 354 10.2 102580 52
2011-11-23 08:51:16 51°16.933 2°59.092 -999 354 10.2 102580 52
2011-11-23 08:51:21 51°16.936 2°59.103 -999 354 10.1 102580 52
2011-11-23 08:51:26 51°16.94 2°59.114 -999 354 10.1 102580 52
2011-11-23 08:51:30 51°16.943 2°59.123 -999 353 10.1 102580 52
2011-11-23 08:51:36 51°16.948 2°59.136 -999 353 10.1 102580 52
2011-11-23 08:51:41 51°16.952 2°59.147 -999 352 10.1 102580 52
2011-11-23 08:51:46 51°16.956 2°59.158 -999 353 10.1 102580 52
2011-11-23 08:51:50 51°16.958 2°59.167 -999 352 10.1 102580 52
2011-11-23 08:51:56 51°16.963 2°59.181 -999 355 10.1 102580 52
2011-11-23 08:52:01 51°16.967 2°59.192 -999 351 10.1 102580 52
2011-11-23 08:52:06 51°16.97 2°59.203 -999 351 10.1 102580 52
2011-11-23 08:52:11 51°16.974 2°59.214 -999 351 10.1 102580 52
2011-11-23 08:52:16 51°16.978 2°59.225 -999 351 10.1 102580 52
2011-11-23 08:52:21 51°16.981 2°59.237 -999 351 10.1 102580 52
2011-11-23 08:52:26 51°16.985 2°59.248 -999 351 10.1 102580 52
2011-11-23 08:52:30 51°16.988 2°59.257 -999 353 10.1 102580 52
2011-11-23 08:52:36 51°16.992 2°59.27 -999 351 10.1 102580 52
2011-11-23 08:52:41 51°16.996 2°59.282 -999 351 10.1 102580 52
2011-11-23 08:52:46 51°17 2°59.293 -999 351 10.1 102580 52
2011-11-23 08:52:50 51°17.003 2°59.301 -999 351 10.1 102580 52
2011-11-23 08:52:56 51°17.007 2°59.315 -999 351 10.1 102580 52
2011-11-23 08:53:01 51°17.011 2°59.326 -999 351 10.1 102580 52
2011-11-23 08:53:06 51°17.015 2°59.337 -999 351 10.1 102580 52
2011-11-23 08:53:10 51°17.018 2°59.346 -999 351 10.1 102580 52
2011-11-23 08:53:16 51°17.022 2°59.36 -999 351 10.1 102580 52
2011-11-23 08:53:21 51°17.026 2°59.371 -999 351 10.1 102580 52
2011-11-23 08:53:26 51°17.029 2°59.382 -999 351 10.1 102580 52
2011-11-23 08:53:30 51°17.033 2°59.392 -999 351 10.1 102580 51
2011-11-23 08:53:36 51°17.037 2°59.405 -999 351 10.1 102580 51
2011-11-23 08:53:41 51°17.04 2°59.416 -999 351 10.1 102580 52
2011-11-23 08:53:46 51°17.044 2°59.428 -999 351 10.1 102580 52
2011-11-23 08:53:50 51°17.047 2°59.437 -999 351 10.1 102580 52
2011-11-23 08:53:56 51°17.052 2°59.451 -999 351 10.1 102580 52
2011-11-23 08:54:01 51°17.055 2°59.462 -999 350 10.1 102580 52
2011-11-23 08:54:06 51°17.059 2°59.473 -999 350 10.1 102580 52
2011-11-23 08:54:11 51°17.063 2°59.484 -999 350 10 102580 52
2011-11-23 08:54:16 51°17.066 2°59.496 -999 349 10 102580 52
2011-11-23 08:54:21 51°17.07 2°59.508 -999 348 10.1 102580 52
2011-11-23 08:54:26 51°17.074 2°59.519 -999 348 10.1 102580 52
2011-11-23 08:54:30 51°17.076 2°59.528 -999 348 10.1 102580 52
2011-11-23 08:54:36 51°17.081 2°59.542 -999 348 10.1 102580 52
2011-11-23 08:54:41 51°17.084 2°59.554 -999 347 10.1 102590 52
2011-11-23 08:54:46 51°17.087 2°59.566 -999 348 10.1 102590 52
2011-11-23 08:54:51 51°17.091 2°59.577 -999 347 10.1 102590 52
2011-11-23 08:54:56 51°17.094 2°59.589 -999 345 10.1 102590 52
2011-11-23 08:55:01 51°17.097 2°59.601 -999 346 10.1 102590 52
2011-11-23 08:55:06 51°17.101 2°59.612 -999 282 10.1 102590 52
2011-11-23 08:55:10 51°17.103 2°59.622 -999 344 10.1 102580 52
2011-11-23 08:55:16 51°17.108 2°59.636 -999 344 10.1 102580 52
2011-11-23 08:55:21 51°17.111 2°59.648 -999 344 10.1 102580 52
2011-11-23 08:55:26 51°17.114 2°59.659 -999 344 10.1 102580 52
2011-11-23 08:55:30 51°17.117 2°59.669 -999 345 10.1 102590 52
2011-11-23 08:55:36 51°17.121 2°59.683 -999 345 10.1 102590 52
2011-11-23 08:55:41 51°17.124 2°59.694 -999 345 10.1 102580 52
2011-11-23 08:55:46 51°17.127 2°59.706 -999 346 10.1 102580 52
2011-11-23 08:55:50 51°17.13 2°59.715 -999 346 10.2 102580 52
2011-11-23 08:55:56 51°17.134 2°59.729 -999 346 10.2 102580 52
2011-11-23 08:56:01 51°17.137 2°59.74 -999 346 10.1 102590 52
2011-11-23 08:56:06 51°17.141 2°59.752 -999 346 10.1 102590 52
2011-11-23 08:56:11 51°17.144 2°59.763 -999 345 10.1 102590 51
2011-11-23 08:56:16 51°17.148 2°59.775 -999 346 10.1 102590 51
2011-11-23 08:56:21 51°17.151 2°59.786 -999 345 10.1 102580 52
2011-11-23 08:56:26 51°17.154 2°59.797 -999 344 10.1 102580 52
2011-11-23 08:56:30 51°17.157 2°59.806 -999 344 10.2 102580 52
2011-11-23 08:56:36 51°17.161 2°59.82 -999 344 10.2 102580 52
2011-11-23 08:56:41 51°17.165 2°59.831 -999 344 10.2 102590 52
2011-11-23 08:56:46 51°17.168 2°59.842 -999 344 10.2 102590 52
2011-11-23 08:56:51 51°17.172 2°59.853 -999 344 10.2 102580 52
2011-11-23 08:56:56 51°17.175 2°59.865 -999 344 10.2 102580 52
2011-11-23 08:57:01 51°17.179 2°59.876 -999 344 10.2 102590 52
2011-11-23 08:57:06 51°17.182 2°59.887 -999 344 10.2 102590 52
2011-11-23 08:57:11 51°17.186 2°59.899 -999 344 10.2 102590 52
2011-11-23 08:57:16 51°17.189 2°59.91 -999 344 10.2 102590 52
2011-11-23 08:57:21 51°17.193 2°59.921 -999 344 10.2 102580 52
2011-11-23 08:57:26 51°17.196 2°59.932 -999 344 10.2 102580 52
2011-11-23 08:57:30 51°17.199 2°59.941 -999 344 10.2 102590 52
2011-11-23 08:57:36 51°17.203 2°59.955 -999 344 10.2 102590 52
2011-11-23 08:57:41 51°17.207 2°59.966 -999 344 10.2 102590 52
2011-11-23 08:57:46 51°17.211 2°59.977 -999 344 10.2 102590 52
2011-11-23 08:57:50 51°17.214 2°59.986 -999 344 10.2 102580 52
2011-11-23 08:57:56 51°17.218 2°59.999 -999 344 10.2 102580 52
2011-11-23 08:58:01 51°17.222 3°0.01 -999 344 10.3 102580 52
2011-11-23 08:58:06 51°17.225 3°0.021 -999 344 10.3 102580 52
2011-11-23 08:58:10 51°17.229 3°0.03 -999 344 10.3 102580 52
2011-11-23 08:58:16 51°17.233 3°0.043 -999 344 10.3 102580 52
2011-11-23 08:58:21 51°17.237 3°0.054 -999 344 10.3 102580 52
2011-11-23 08:58:26 51°17.24 3°0.065 -999 344 10.3 102580 52
2011-11-23 08:58:30 51°17.244 3°0.074 -999 344 10.3 102580 52
2011-11-23 08:58:36 51°17.248 3°0.087 -999 344 10.3 102580 52
2011-11-23 08:58:41 51°17.252 3°0.099 -999 344 10.3 102580 52
2011-11-23 08:58:46 51°17.256 3°0.11 -999 344 10.3 102580 52
2011-11-23 08:58:50 51°17.259 3°0.118 -999 344 10.3 102590 51
2011-11-23 08:58:56 51°17.263 3°0.132 -999 344 10.3 102590 51
2011-11-23 08:59:01 51°17.267 3°0.143 -999 344 10.3 102580 52
2011-11-23 08:59:06 51°17.271 3°0.154 -999 344 10.3 102580 52
2011-11-23 08:59:10 51°17.274 3°0.163 -999 344 10.3 102590 52
2011-11-23 08:59:16 51°17.278 3°0.177 -999 344 10.3 102590 52
2011-11-23 08:59:21 51°17.282 3°0.188 -999 344 10.3 102580 52
2011-11-23 08:59:26 51°17.286 3°0.199 -999 344 10.3 102580 52
2011-11-23 08:59:31 51°17.289 3°0.21 -999 342 10.3 102580 52
2011-11-23 08:59:36 51°17.293 3°0.222 -999 342 10.3 102580 52
2011-11-23 08:59:41 51°17.297 3°0.233 -999 342 10.3 102580 52
2011-11-23 08:59:46 51°17.3 3°0.244 -999 343 10.3 102580 52
2011-11-23 08:59:50 51°17.303 3°0.253 -999 342 10.3 102580 52
2011-11-23 08:59:56 51°17.307 3°0.267 -999 342 10.3 102580 52
2011-11-23 09:00:01 51°17.311 3°0.279 -999 343 10.3 102580 52
2011-11-23 09:00:06 51°17.315 3°0.29 -999 343 10.3 102580 52
2011-11-23 09:00:10 51°17.318 3°0.299 -999 342 10.3 102590 52
2011-11-23 09:00:16 51°17.322 3°0.313 -999 342 10.3 102590 52
2011-11-23 09:00:21 51°17.325 3°0.324 -999 342 10.4 102590 52
2011-11-23 09:00:26 51°17.329 3°0.336 -999 343 10.4 102590 52
2011-11-23 09:00:30 51°17.332 3°0.345 -999 343 10.4 102580 52
2011-11-23 09:00:36 51°17.336 3°0.359 -999 342 10.4 102580 52
2011-11-23 09:00:41 51°17.34 3°0.37 -999 342 10.4 102580 52
2011-11-23 09:00:46 51°17.344 3°0.381 -999 342 10.4 102580 52
2011-11-23 09:00:50 51°17.347 3°0.39 -999 342 10.4 102590 52
2011-11-23 09:00:56 51°17.351 3°0.404 -999 342 10.4 102590 52
2011-11-23 09:01:01 51°17.355 3°0.415 -999 342 10.4 102590 52
2011-11-23 09:01:06 51°17.359 3°0.426 -999 342 10.4 102590 52
2011-11-23 09:01:11 51°17.363 3°0.438 -999 342 10.4 102590 52
2011-11-23 09:01:16 51°17.367 3°0.449 -999 342 10.4 102590 52
2011-11-23 09:01:21 51°17.371 3°0.46 -999 342 10.4 102580 52
2011-11-23 09:01:26 51°17.375 3°0.471 -999 338 10.4 102580 52
2011-11-23 09:01:30 51°17.378 3°0.48 -999 338 10.4 102590 51
2011-11-23 09:01:36 51°17.383 3°0.493 -999 338 10.4 102590 51
2011-11-23 09:01:41 51°17.388 3°0.504 -999 338 10.4 102590 52
2011-11-23 09:01:46 51°17.392 3°0.515 -999 340 10.4 102590 52
2011-11-23 09:01:50 51°17.395 3°0.524 -999 340 10.4 102580 52
2011-11-23 09:01:56 51°17.4 3°0.537 -999 340 10.4 102580 52
2011-11-23 09:02:01 51°17.405 3°0.548 -999 340 10.4 102580 52
2011-11-23 09:02:06 51°17.409 3°0.559 -999 340 10.4 102580 52
2011-11-23 09:02:10 51°17.412 3°0.568 -999 340 10.4 102590 52
2011-11-23 09:02:16 51°17.418 3°0.581 -999 340 10.4 102590 52
2011-11-23 09:02:21 51°17.422 3°0.592 -999 340 10.5 102580 52
2011-11-23 09:02:26 51°17.426 3°0.604 -999 340 10.5 102580 52
2011-11-23 09:02:30 51°17.43 3°0.612 -999 340 10.4 102590 52
2011-11-23 09:02:36 51°17.435 3°0.626 -999 340 10.4 102590 52
2011-11-23 09:02:41 51°17.439 3°0.637 -999 340 10.4 102580 52
2011-11-23 09:02:46 51°17.443 3°0.648 -999 340 10.4 102580 52
2011-11-23 09:02:50 51°17.447 3°0.657 -999 340 10.4 102580 52
2011-11-23 09:02:56 51°17.452 3°0.67 -999 340 10.4 102580 52
2011-11-23 09:03:01 51°17.456 3°0.681 -999 340 10.4 102580 52
2011-11-23 09:03:06 51°17.46 3°0.692 -999 340 10.4 102580 52
2011-11-23 09:03:10 51°17.464 3°0.701 -999 340 10.5 102580 52
2011-11-23 09:03:16 51°17.469 3°0.715 -999 340 10.5 102580 52
2011-11-23 09:03:21 51°17.473 3°0.726 -999 340 10.4 102580 52
2011-11-23 09:03:26 51°17.477 3°0.737 -999 340 10.4 102580 52
2011-11-23 09:03:31 51°17.481 3°0.749 -999 340 10.4 102580 52
2011-11-23 09:03:36 51°17.486 3°0.759 -999 340 10.4 102580 52
2011-11-23 09:03:41 51°17.49 3°0.771 -999 347 10.4 102580 52
2011-11-23 09:03:46 51°17.494 3°0.782 -999 347 10.4 102580 52
2011-11-23 09:03:50 51°17.497 3°0.791 -999 348 10.4 102580 52
2011-11-23 09:03:56 51°17.502 3°0.804 -999 346 10.4 102580 52
2011-11-23 09:04:01 51°17.506 3°0.815 -999 345 10.4 102580 52
2011-11-23 09:04:06 51°17.51 3°0.826 -999 283 10.4 102580 52
2011-11-23 09:04:10 51°17.513 3°0.834 -999 344 10.4 102580 51
2011-11-23 09:04:16 51°17.518 3°0.847 -999 345 10.4 102580 51
2011-11-23 09:04:21 51°17.522 3°0.858 -999 344 10.4 102590 52
2011-11-23 09:04:26 51°17.526 3°0.869 -999 344 10.4 102590 52
2011-11-23 09:04:30 51°17.529 3°0.878 -999 344 10.4 102580 52
2011-11-23 09:04:36 51°17.534 3°0.891 -999 344 10.4 102580 52
2011-11-23 09:04:41 51°17.538 3°0.901 -999 345 10.4 102590 52
2011-11-23 09:04:46 51°17.541 3°0.912 -999 346 10.4 102590 52
2011-11-23 09:04:50 51°17.544 3°0.921 -999 346 10.4 102580 51
2011-11-23 09:04:56 51°17.549 3°0.933 -999 348 10.4 102580 51
2011-11-23 09:05:01 51°17.553 3°0.944 -999 348 10.4 102590 51
2011-11-23 09:05:06 51°17.556 3°0.955 -999 348 10.4 102590 51
2011-11-23 09:05:10 51°17.559 3°0.964 -999 348 10.4 102580 51
2011-11-23 09:05:16 51°17.564 3°0.977 -999 348 10.4 102580 51
2011-11-23 09:05:21 51°17.567 3°0.987 -999 347 10.4 102590 51
2011-11-23 09:05:26 51°17.571 3°0.998 -999 348 10.4 102590 51
2011-11-23 09:05:31 51°17.574 3°1.009 -999 348 10.4 102580 52